Date,TemperatureHighF,TemperatureAvgF,TemperatureLowF,DewpointHighF,DewpointAvgF,DewpointLowF,HumidityHigh,HumidityAvg,HumidityLow,PressureMaxIn,PressureMinIn,WindSpeedMaxMPH,WindSpeedAvgMPH,GustSpeedMaxMPH,PrecipitationSumIn
2013-5-1,84,67,43,36,15,-4,57,18,6,0.00,40.00,10,5,25,0.00
2013-5-2,61,50,35,31,15,3,68,29,12,0.00,40.00,6,4,19,0.00
2013-5-3,67,49,32,17,12,7,53,25,10,0.00,40.00,5,4,15,0.00
2013-5-4,77,58,32,31,14,5,82,26,7,0.00,40.00,9,4,31,0.00
2013-5-5,74,63,51,29,16,5,25,17,10,0.00,40.00,11,6,33,0.00
2013-5-6,74,62,52,37,24,12,43,24,14,0.00,40.00,11,5,27,0.00
2013-5-7,77,60,37,39,28,21,83,34,14,0.00,40.00,9,3,26,0.00
2013-5-8,72,60,41,40,25,12,84,34,11,0.00,40.00,8,4,24,0.00
2013-5-9,71,60,41,33,23,17,68,27,14,0.00,40.00,7,3,18,0.00
2013-5-10,69,59,49,46,34,-100,66,42,23,0.00,40.00,6,3,19,0.02
2013-5-11,72,57,43,44,36,25,80,52,18,0.00,40.00,7,3,21,0.02
2013-5-12,81,59,38,40,33,22,92,47,13,0.00,40.00,5,2,19,0.00
2013-5-13,84,63,39,42,32,23,88,40,12,0.00,40.00,5,2,18,0.00
2013-5-14,87,66,41,49,30,20,83,37,10,0.00,40.00,8,3,27,0.02
2013-5-15,91,72,56,49,38,17,69,37,10,0.00,40.00,8,3,31,0.02
2013-5-16,88,68,44,41,-3,-100,74,18,6,0.00,40.00,8,4,21,0.00
2013-5-17,87,74,43,40,16,-100,63,17,8,0.00,40.00,7,4,31,0.00
2013-5-18,78,70,43,42,20,9,55,16,9,0.00,40.00,8,4,40,0.00
2013-5-19,76,66,51,41,28,19,61,26,12,0.00,40.00,10,5,31,0.00
2013-5-20,77,65,43,41,26,8,74,27,7,0.00,40.00,10,6,29,0.00
2013-5-21,81,62,42,39,29,19,74,34,10,0.00,40.00,7,3,28,0.00
2013-5-22,87,66,42,43,28,11,77,35,8,0.00,40.00,6,2,24,0.00
2013-5-23,91,70,46,38,24,11,52,23,7,0.00,40.00,7,3,21,0.00
2013-5-24,89,72,48,47,34,19,81,33,10,0.00,40.00,6,3,20,0.00
2013-5-25,92,71,44,38,26,8,73,27,6,0.00,40.00,7,3,26,0.00
2013-5-26,89,70,43,43,22,5,79,26,5,0.00,40.00,6,3,18,0.00
2013-5-27,85,66,44,39,22,10,55,25,6,0.00,40.00,8,3,25,0.00
2013-5-28,83,67,39,43,21,8,82,27,6,0.00,40.00,6,3,20,0.00
2013-5-29,82,71,56,40,23,10,43,19,7,0.00,40.00,10,5,31,0.00
2013-5-30,89,71,42,38,23,10,60,21,8,0.00,40.00,9,4,25,0.00
2013-5-31,87,76,57,39,26,5,41,19,7,0.00,40.00,10,6,33,0.00